Weather in Kamennyy Bor

Russia / Republic of Karelia     63°55′36″N   34°11′00″E
temp.,
°C
wind,
m/s
gust,
m/s
humid.,
%
clouds,
%
prec.,
mm/h
press.,
hPa
HPBL,
m
14 may, fri
fri1400:00+15sse25695 0.0 101390
03:00+14sse227658 0.0 101220
06:00+15ene12761 0.9 101066
09:00+19se236069 1.9 1009529
12:00+19sse466484 0.7 1009619
15:00+14se4783100 3.4 1010440
18:00+13s368175 4.5 1010567
21:00+12sse358686 4.5 1011324
15 may, sat
sat1500:00+11sse1392100 0.0 1012143
03:00+10ne2295100 0.1 1012125
06:00+8nne359294 0.1 1013244
09:00+7nne3487100 0.1 1014321
12:00+10ne337693 0.0 1014470
15:00+13ne336512 0.0 1013617
18:00+11ne457014 0.0 1012443
21:00+7nne488939 0.0 1011268
16 may, sun
sun1600:00+5nne4993100 0.0 1010272
03:00+6nne4995100 0.0 1008249
06:00+6nne3795100 0.0 1007251
09:00+8nne4685100 0.0 1007314
12:00+12nne4568100 0.0 1007549
15:00+12nne4470100 0.0 1007532
18:00+10nne3577100 0.0 1008291
21:00+8nne2484100 0.0 1009205
17 may, mon
mon1700:00+7nne2488100 0.0 1010145
03:00+7nne2489100 0.1 1011165
06:00+6nne2486100 0.2 1012181
09:00+8ne2476100 0.3 1013273
12:00+11ene1268100 0.0 1014485
15:00+13se1266100 0.0 1015541
18:00+14ese23624 0.0 1014630
21:00+11se23814 0.0 101548
18 may, tue
tue1800:00+8ese239658 0.0 101465
03:00+8ese2895100 0.0 1014174
06:00+10e310845 0.0 1011281
09:00+17ese51061100 0.0 1009605
12:00+22se71351100 0.0 10061196
15:00+20se6126198 0.1 10041052
18:00+18sse51378100 1.3 1003814
21:00+16s41185100 3.3 1003604